Location: High Meadows Obseravatory
(40.7417°N, 111.5713°W)
Time: 21:06:54
(UTC-06:00)

Envisat - Pass Details

Date: 16 August 2022
Orbit: 763 x 765 km, 98.2° (Epoch: 30 September)

Event Time Altitude Azimuth Distance (km) Brightness Sun altitude
Rises 04:32:21 0° 33° (NNE) 3,235 7.6 -21.2°
Reaches altitude 10° 04:35:49 10° 58° (ENE) 2,302 6.6 -20.8°
Maximum altitude 04:38:29 14° 90° (E) 2,015 5.8 -20.4°
Drops below altitude 10° 04:41:08 10° 122° (ESE) 2,292 5.7 -20.0°
Sets 04:44:33 0° 147° (SSE) 3,212 6.2 -19.5°
